EW9807 Weather Reports


Display with metric or nautical units.
time (UTC)temp
F
wind
direction
speed
MPH
gust
MPH
rain 1hr
in
rain 24hr
in
rain mn
in
humidity
%
barometer
mb
20260904215507 93 181 0.0 4.0 0.00 0.00 0.00 54 1012.1
20260904215006 92 141 1.0 4.0 0.00 0.00 0.00 54 1012.2
20260904214506 92 189 0.0 2.0 0.00 0.00 0.00 55 1012.2
20260904214005 92 98 0.0 3.0 0.00 0.00 0.00 55 1012.3
20260904213505 92 98 1.0 3.0 0.00 0.00 0.00 55 1012.3
20260904213005 92 96 1.0 3.0 0.00 0.00 0.00 55 1012.3
20260904212507 92 359 0.0 3.0 0.00 0.00 0.00 55 1012.3
20260904212004 92 308 0.0 3.0 0.00 0.00 0.00 55 1012.4
20260904211504 92 135 1.0 2.0 0.00 0.00 0.00 54 1012.4
20260904211006 92 137 0.0 4.0 0.00 0.00 0.00 56 1012.3
20260904210504 92 139 0.0 4.0 0.00 0.00 0.00 54 1012.3
20260904210004 91 318 0.0 2.0 0.00 0.00 0.00 56 1012.4
20260904205505 91 318 0.0 4.0 0.00 0.00 0.00 57 1012.4
20260904205003 92 318 1.0 4.0 0.00 0.00 0.00 56 1012.3
20260904204502 92 111 0.0 3.0 0.00 0.00 0.00 57 1012.3
20260904204003 92 87 1.0 6.0 0.00 0.00 0.00 55 1012.5
20260904203502 92 103 1.0 6.0 0.00 0.00 0.00 54 1012.4
20260904203001 92 89 1.0 3.0 0.00 0.00 0.00 55 1012.6
20260904202600 92 299 0.0 3.0 0.00 0.00 0.00 55 1012.6
20260904202059 92 326 1.0 4.0 0.00 0.00 0.00 55 1012.8
20260904201618 92 326 0.0 5.0 0.00 0.00 0.00 53 1012.9
20260904201058 93 93 2.0 5.0 0.00 0.00 0.00 53 1012.9
20260904200557 93 129 1.0 4.0 0.00 0.00 0.00 52 1013.0
20260904200058 92 8 1.0 3.0 0.00 0.00 0.00 52 1013.0
20260904195556 93 51 1.0 4.0 0.00 0.00 0.00 53 1013.2
20260904195058 92 134 1.0 4.0 0.00 0.00 0.00 55 1013.2
20260904194558 92 32 1.0 4.0 0.00 0.00 0.00 55 1013.2
20260904194054 92 1 1.0 3.0 0.00 0.00 0.00 54 1013.3
20260904193555 93 143 1.0 3.0 0.00 0.00 0.00 54 1013.3
20260904193059 93 148 0.0 3.0 0.00 0.00 0.00 54 1013.4
20260904192552 93 153 2.0 5.0 0.00 0.00 0.00 54 1013.5
20260904192055 93 172 2.0 5.0 0.00 0.00 0.00 56 1013.6
20260904191551 92 139 1.0 4.0 0.00 0.00 0.00 57 1013.8
20260904191050 92 23 1.0 5.0 0.00 0.00 0.00 56 1013.9
20260904190548 93 153 0.0 5.0 0.00 0.00 0.00 55 1013.9
20260904190049 92 66 1.0 5.0 0.00 0.00 0.00 57 1014.0
20260904185548 91 92 1.0 3.0 0.00 0.00 0.00 58 1014.0
20260904185051 91 95 1.0 2.0 0.00 0.00 0.00 60 1014.1
20260904184547 92 95 1.0 5.0 0.00 0.00 0.00 58 1014.2
20260904184046 91 243 0.0 3.0 0.00 0.00 0.00 60 1014.3
20260904183545 91 347 1.0 5.0 0.00 0.00 0.00 59 1014.4
20260904183044 93 84 2.0 5.0 0.00 0.00 0.00 59 1014.6
20260904182544 93 164 1.0 3.0 0.00 0.00 0.00 59 1014.6
20260904182044 92 51 1.0 6.0 0.00 0.00 0.00 60 1014.7
20260904181543 92 190 2.0 6.0 0.00 0.00 0.00 62 1014.7
20260904181046 92 165 1.0 4.0 0.00 0.00 0.00 59 1014.8
20260904180544 92 120 2.0 8.0 0.00 0.00 0.00 60 1014.8
20260904180055 92 274 1.0 8.0 0.00 0.00 0.00 60 1014.9
20260904175541 92 156 1.0 5.0 0.00 0.00 0.00 60 1014.9
20260904175041 90 68 1.0 3.0 0.00 0.00 0.00 63 1014.9
20260904174545 89 345 1.0 3.0 0.00 0.00 0.00 64 1015.0
20260904174040 89 323 0.0 4.0 0.00 0.00 0.00 63 1015.0
20260904173541 91 320 1.0 4.0 0.00 0.00 0.00 61 1015.1
20260904173058 90 208 1.0 3.0 0.00 0.00 0.00 62 1015.1
20260904172543 91 8 1.0 3.0 0.00 0.00 0.00 61 1015.1
20260904172038 90 1 1.0 3.0 0.00 0.00 0.00 61 1015.2
20260904171548 91 73 1.0 3.0 0.00 0.00 0.00 60 1015.2
20260904171037 91 100 1.0 5.0 0.00 0.00 0.00 60 1015.3
20260904170539 91 332 1.0 5.0 0.00 0.00 0.00 60 1015.4
20260904170038 91 193 2.0 5.0 0.00 0.00 0.00 60 1015.4
20260904165535 90 6 1.0 3.0 0.00 0.00 0.00 62 1015.4
20260904165036 90 29 1.0 3.0 0.00 0.00 0.00 63 1015.4
20260904164534 90 116 0.0 4.0 0.00 0.00 0.00 65 1015.4
20260904164034 89 322 0.0 3.0 0.00 0.00 0.00 64 1015.4
20260904163537 89 331 0.0 3.0 0.00 0.00 0.00 67 1015.5
20260904163041 89 331 0.0 2.0 0.00 0.00 0.00 67 1015.5
20260904162533 89 331 0.0 4.0 0.00 0.00 0.00 65 1015.6
20260904162031 89 35 1.0 4.0 0.00 0.00 0.00 65 1015.7
20260904161531 88 190 1.0 4.0 0.00 0.00 0.00 69 1015.8
20260904161029 88 337 1.0 4.0 0.00 0.00 0.00 66 1015.8
20260904160533 89 1 1.0 5.0 0.00 0.00 0.00 66 1015.9
20260904160034 88 89 2.0 5.0 0.00 0.00 0.00 66 1016.0
20260904155525 87 119 1.0 5.0 0.00 0.00 0.00 67 1016.1
20260904155025 87 112 1.0 5.0 0.00 0.00 0.00 69 1016.1
20260904154524 87 316 1.0 3.0 0.00 0.00 0.00 69 1016.1
20260904154022 87 310 1.0 4.0 0.00 0.00 0.00 71 1016.1
20260904153522 86 285 1.0 2.0 0.00 0.00 0.00 71 1016.1
20260904153021 86 285 0.0 2.0 0.00 0.00 0.00 71 1016.1
20260904152519 86 285 0.0 3.0 0.00 0.00 0.00 73 1016.1
20260904152020 86 158 0.0 2.0 0.00 0.00 0.00 73 1016.2
20260904151518 86 134 1.0 5.0 0.00 0.00 0.00 72 1016.2
20260904151019 85 139 0.0 5.0 0.00 0.00 0.00 73 1016.3
20260904150517 84 153 1.0 3.0 0.00 0.00 0.00 73 1016.2
20260904150016 84 139 0.0 2.0 0.00 0.00 0.00 76 1016.2
20260904145513 83 139 1.0 2.0 0.00 0.00 0.00 77 1016.1
20260904145011 83 139 0.0 2.0 0.00 0.00 0.00 78 1016.0
20260904144509 83 139 0.0 2.0 0.00 0.00 0.00 79 1016.0
20260904144008 82 152 0.0 1.0 0.00 0.00 0.00 79 1016.0
20260904143508 82 152 0.0 3.0 0.00 0.00 0.00 79 1016.1
20260904143026 82 152 1.0 4.0 0.00 0.00 0.00 78 1016.0
20260904142508 81 129 0.0 3.0 0.00 0.00 0.00 80 1016.0
20260904142006 81 129 0.0 3.0 0.00 0.00 0.00 80 1016.0
20260904141505 81 169 0.0 4.0 0.00 0.00 0.00 80 1016.0
20260904141004 81 183 2.0 4.0 0.00 0.00 0.00 81 1016.0
20260904140503 81 77 1.0 3.0 0.00 0.00 0.00 81 1016.0
20260904140002 80 80 1.0 3.0 0.00 0.00 0.00 81 1016.1
20260904135502 80 135 1.0 3.0 0.00 0.00 0.00 83 1016.1
20260904135101 79 204 0.0 2.0 0.00 0.00 0.00 84 1016.1
20260904134606 79 204 0.0 2.0 0.00 0.00 0.00 84 1016.0
20260904134059 79 204 1.0 2.0 0.00 0.00 0.00 85 1016.0
20260904133559 79 204 1.0 2.0 0.00 0.00 0.00 85 1015.9
20260904133059 78 281 0.0 0.0 0.00 0.00 0.00 86 1015.8
20260904132558 78 282 0.0 0.0 0.00 0.00 0.00 87 1015.8
20260904132059 78 282 0.0 0.0 0.00 0.00 0.00 87 1015.8
20260904131558 78 282 0.0 0.0 0.00 0.00 0.00 88 1015.9
20260904131058 77 282 0.0 0.0 0.00 0.00 0.00 88 1016.0
20260904130556 77 282 0.0 0.0 0.00 0.00 0.00 89 1016.0
20260904130056 77 282 0.0 0.0 0.00 0.00 0.00 89 1015.9
20260904125556 76 282 0.0 0.0 0.00 0.00 0.00 89 1015.8
20260904125059 76 282 0.0 0.0 0.00 0.00 0.00 90 1015.8
20260904124602 76 282 0.0 0.0 0.00 0.00 0.00 91 1015.9
20260904124059 75 282 0.0 0.0 0.00 0.00 0.00 91 1016.0
20260904123555 75 282 0.0 0.0 0.00 0.00 0.00 92 1015.8
20260904123055 74 282 0.0 0.0 0.00 0.00 0.00 92 1015.9
20260904122554 74 282 0.0 0.0 0.00 0.00 0.00 93 1015.8
20260904122054 74 282 0.0 0.0 0.00 0.00 0.00 93 1015.7
20260904121553 74 282 0.0 0.0 0.00 0.00 0.00 93 1015.7
20260904121056 73 282 0.0 0.0 0.00 0.00 0.00 93 1015.8
20260904120553 73 282 0.0 0.0 0.00 0.00 0.00 93 1015.8
20260904120055 73 282 0.0 0.0 0.00 0.00 0.00 93 1015.7
20260904115550 73 282 0.0 0.0 0.00 0.00 0.00 93 1015.7
20260904115049 73 282 0.0 0.0 0.00 0.00 0.00 93 1015.6
20260904114548 73 282 0.0 0.0 0.00 0.00 0.00 93 1015.5
20260904114048 73 282 0.0 0.0 0.00 0.00 0.00 93 1015.5
20260904113548 73 282 0.0 0.0 0.00 0.00 0.00 93 1015.5
20260904113051 73 282 0.0 0.0 0.00 0.00 0.00 93 1015.5
20260904112548 73 64 0.0 0.0 0.00 0.00 0.00 93 1015.4
20260904112051 73 64 0.0 0.0 0.00 0.00 0.00 93 1015.3
20260904111546 73 64 0.0 0.0 0.00 0.00 0.00 93 1015.4
20260904111046 73 64 0.0 0.0 0.00 0.00 0.00 92 1015.3
20260904110548 73 64 0.0 0.0 0.00 0.00 0.00 92 1015.3
20260904110044 73 64 0.0 0.0 0.00 0.00 0.00 92 1015.2
20260904105544 73 64 0.0 0.0 0.00 0.00 0.00 92 1015.2
20260904105043 73 64 0.0 0.0 0.00 0.00 0.00 92 1015.1
20260904104543 73 64 0.0 0.0 0.00 0.00 0.00 92 1015.1
20260904104042 73 64 0.0 0.0 0.00 0.00 0.00 91 1015.1
20260904103542 74 64 0.0 0.0 0.00 0.00 0.00 91 1015.1
20260904103044 74 64 0.0 0.0 0.00 0.00 0.00 91 1015.1
20260904102542 74 64 0.0 0.0 0.00 0.00 0.00 91 1015.1
20260904102041 74 64 0.0 0.0 0.00 0.00 0.00 91 1015.0
20260904101540 74 64 0.0 0.0 0.00 0.00 0.00 91 1014.9
20260904101042 74 64 0.0 0.0 0.00 0.00 0.00 91 1014.9
20260904100542 74 64 0.0 0.0 0.00 0.00 0.00 90 1014.8
20260904100042 74 64 0.0 0.0 0.00 0.00 0.00 90 1014.9
20260904095539 74 64 0.0 0.0 0.00 0.00 0.00 90 1014.9
20260904095041 74 64 0.0 0.0 0.00 0.00 0.00 91 1014.8
20260904094546 74 64 0.0 0.0 0.00 0.00 0.00 90 1014.8
20260904094038 74 64 0.0 0.0 0.00 0.00 0.00 90 1014.8
20260904093542 74 64 0.0 0.0 0.00 0.00 0.00 91 1014.8
20260904093038 74 64 0.0 0.0 0.00 0.00 0.00 91 1014.7
20260904092538 74 64 0.0 0.0 0.00 0.00 0.00 90 1014.7
20260904092037 74 64 0.0 0.0 0.00 0.00 0.00 90 1014.7
20260904091537 74 64 0.0 0.0 0.00 0.00 0.00 90 1014.8
20260904091037 74 64 0.0 0.0 0.00 0.00 0.00 90 1014.8
20260904090539 75 64 0.0 0.0 0.00 0.00 0.00 90 1014.8
20260904090035 75 64 0.0 0.0 0.00 0.00 0.00 90 1014.8
20260904085534 75 64 0.0 0.0 0.00 0.00 0.00 89 1014.8
20260904085040 75 64 0.0 0.0 0.00 0.00 0.00 89 1014.8
20260904084535 75 64 0.0 0.0 0.00 0.00 0.00 89 1014.8
20260904084035 75 64 0.0 0.0 0.00 0.00 0.00 89 1014.8
20260904083534 75 64 0.0 0.0 0.00 0.00 0.00 89 1014.8
20260904083035 75 64 0.0 0.0 0.00 0.00 0.00 89 1014.8
20260904082534 75 64 0.0 0.0 0.00 0.00 0.00 89 1014.8
20260904082033 75 64 0.0 0.0 0.00 0.00 0.00 89 1014.8
20260904081533 75 64 0.0 0.0 0.00 0.00 0.00 89 1014.8
20260904081033 75 64 0.0 0.0 0.00 0.00 0.00 89 1014.7
20260904080534 75 64 0.0 0.0 0.00 0.00 0.00 89 1014.7
20260904080032 75 64 0.0 0.0 0.00 0.00 0.00 89 1014.6
20260904075535 75 64 0.0 0.0 0.00 0.00 0.00 89 1014.6
20260904075032 75 64 0.0 0.0 0.00 0.00 0.00 89 1014.7
20260904074554 75 64 0.0 0.0 0.00 0.00 0.00 89 1014.6
20260904074032 75 64 0.0 0.0 0.00 0.00 0.00 89 1014.6
20260904073531 75 64 0.0 0.0 0.00 0.00 0.00 89 1014.6
20260904073030 75 64 0.0 0.0 0.00 0.00 0.00 88 1014.6
20260904072532 75 64 0.0 0.0 0.00 0.00 0.00 88 1014.7
20260904072030 75 64 0.0 0.0 0.00 0.00 0.00 88 1014.6
20260904071535 75 64 0.0 0.0 0.00 0.00 0.00 88 1014.6
20260904071030 75 64 0.0 0.0 0.00 0.00 0.00 87 1014.6
20260904070531 76 64 0.0 0.0 0.00 0.00 0.00 87 1014.5
20260904070028 76 64 0.0 0.0 0.00 0.00 0.00 87 1014.5
20260904065527 76 64 0.0 0.0 0.00 0.00 0.00 87 1014.7
20260904065027 76 64 0.0 0.0 0.00 0.00 0.00 87 1014.7
20260904064526 76 64 0.0 0.0 0.00 0.00 0.00 86 1014.7
20260904064026 76 64 0.0 0.0 0.00 0.00 0.00 87 1014.7
20260904063527 76 64 0.0 0.0 0.00 0.00 0.00 87 1014.6
20260904063026 76 64 0.0 0.0 0.00 0.00 0.00 86 1014.6
20260904062526 77 64 0.0 0.0 0.00 0.00 0.00 87 1014.6
20260904062026 77 64 0.0 0.0 0.00 0.00 0.00 86 1014.7
20260904061525 77 64 0.0 0.0 0.00 0.00 0.00 85 1014.7
20260904061026 77 64 0.0 0.0 0.00 0.00 0.00 86 1014.6
20260904060523 77 64 0.0 0.0 0.00 0.00 0.00 85 1014.6
20260904060023 77 64 0.0 0.0 0.00 0.00 0.00 85 1014.8
20260904055522 77 64 0.0 0.0 0.00 0.00 0.00 86 1014.7
20260904055024 77 64 0.0 0.0 0.00 0.00 0.00 87 1014.7
20260904054521 77 64 0.0 0.0 0.00 0.00 0.00 86 1014.7
20260904054020 77 64 0.0 0.0 0.00 0.00 0.00 86 1014.7
20260904053520 77 64 0.0 0.0 0.00 0.00 0.00 86 1014.8
20260904053033 77 64 0.0 0.0 0.00 0.00 0.00 85 1014.8
20260904052521 77 64 0.0 0.0 0.00 0.00 0.00 85 1014.8
20260904052019 77 64 0.0 0.0 0.00 0.00 0.00 85 1014.7
20260904051527 78 64 0.0 0.0 0.00 0.00 0.00 85 1014.8
20260904051020 78 64 0.0 0.0 0.00 0.00 0.00 85 1014.8
20260904050519 78 64 0.0 0.0 0.00 0.00 0.00 84 1014.7
20260904050022 78 64 0.0 1.0 0.00 0.00 0.00 84 1014.8
20260904045517 78 64 0.0 1.0 0.00 0.00 0.00 84 1014.8
20260904045017 78 64 0.0 0.0 0.00 0.00 0.00 84 1014.7
20260904044518 78 64 0.0 0.0 0.00 0.00 0.00 84 1014.8
20260904044019 78 64 0.0 0.0 0.00 0.00 0.00 83 1014.8
20260904043515 78 64 0.0 0.0 0.00 0.00 0.00 83 1014.9
20260904043014 78 64 0.0 0.0 0.00 0.00 0.00 83 1014.9
20260904042517 78 64 0.0 0.0 0.00 0.00 0.00 83 1014.8
20260904042013 79 64 0.0 0.0 0.00 0.00 0.00 82 1014.8
20260904041512 79 64 0.0 0.0 0.00 0.00 0.00 83 1014.8
20260904041014 79 64 0.0 0.0 0.00 0.00 0.00 81 1014.8
20260904040513 79 64 0.0 0.0 0.00 0.00 0.00 81 1014.8
20260904040011 79 64 0.0 0.0 0.00 0.00 0.00 81 1014.8
20260904035513 79 64 0.0 0.0 0.00 0.00 0.00 81 1014.8
20260904035010 79 64 0.0 0.0 0.00 0.00 0.00 82 1014.9
20260904034510 80 64 0.0 0.0 0.00 0.00 0.00 80 1015.0
20260904034012 80 64 0.0 0.0 0.00 0.00 0.00 81 1015.0
20260904033510 80 64 0.0 0.0 0.00 0.00 0.00 80 1015.0
20260904033010 80 64 0.0 0.0 0.00 0.00 0.00 79 1015.0
20260904032511 80 64 0.0 0.0 0.00 0.00 0.00 80 1014.9
20260904032010 80 64 0.0 0.0 0.00 0.00 0.00 79 1014.9
20260904031509 81 64 0.0 0.0 0.00 0.00 0.00 80 1014.9
20260904031008 81 64 0.0 0.0 0.00 0.00 0.00 78 1015.0
20260904030508 81 64 0.0 0.0 0.00 0.00 0.00 77 1014.9
20260904030008 81 64 0.0 0.0 0.00 0.00 0.00 75 1014.9
20260904025508 81 64 0.0 1.0 0.00 0.00 0.00 75 1015.0
20260904025008 81 64 0.0 1.0 0.00 0.00 0.00 75 1015.0
20260904024507 82 64 0.0 0.0 0.00 0.00 0.00 76 1015.0
20260904024007 82 64 0.0 1.0 0.00 0.00 0.00 74 1015.0
20260904023508 82 64 0.0 1.0 0.00 0.00 0.00 74 1015.0
20260904023007 82 64 0.0 1.0 0.00 0.00 0.00 74 1015.0
20260904022507 82 64 0.0 1.0 0.00 0.00 0.00 75 1015.0
20260904022009 82 64 0.0 1.0 0.00 0.00 0.00 75 1014.9
20260904021507 82 64 0.0 0.0 0.00 0.00 0.00 76 1014.8
20260904021008 82 64 0.0 0.0 0.00 0.00 0.00 77 1014.7
20260904020507 82 64 0.0 0.0 0.00 0.00 0.00 75 1014.7
20260904020007 82 64 0.0 0.0 0.00 0.00 0.00 76 1014.7
20260904015506 82 64 0.0 0.0 0.00 0.00 0.00 76 1014.6
20260904015009 82 64 0.0 0.0 0.00 0.00 0.00 75 1014.5
20260904014506 82 64 0.0 0.0 0.00 0.00 0.00 74 1014.5
20260904014006 82 64 0.0 0.0 0.00 0.00 0.00 75 1014.4
20260904013505 82 64 0.0 0.0 0.00 0.00 0.00 76 1014.4
20260904013009 83 64 0.0 0.0 0.00 0.00 0.00 74 1014.4
20260904012509 83 64 0.0 0.0 0.00 0.00 0.00 73 1014.4
20260904012009 83 64 0.0 0.0 0.00 0.00 0.00 73 1014.3
20260904011506 83 64 0.0 0.0 0.00 0.00 0.00 72 1014.3
20260904011008 83 64 0.0 0.0 0.00 0.00 0.00 72 1014.3
20260904010504 83 64 0.0 0.0 0.00 0.00 0.00 73 1014.1
20260904010005 84 64 0.0 0.0 0.00 0.00 0.00 71 1014.1
20260904005504 84 64 0.0 0.0 0.00 0.00 0.00 71 1014.1
20260904005004 84 64 0.0 0.0 0.00 0.00 0.00 70 1014.0
20260904004508 84 64 0.0 0.0 0.00 0.00 0.00 70 1013.9
20260904004006 84 64 0.0 0.0 0.00 0.00 0.00 70 1013.8
20260904003506 85 64 0.0 0.0 0.00 0.00 0.00 69 1013.8
20260904003005 85 64 0.0 0.0 0.00 0.00 0.00 68 1013.9
20260904002504 85 64 0.0 0.0 0.00 0.00 0.00 68 1013.8
20260904002005 85 64 0.0 1.0 0.00 0.00 0.00 68 1013.7
20260904001505 86 64 0.0 1.0 0.00 0.00 0.00 67 1013.7
20260904001003 86 64 0.0 1.0 0.00 0.00 0.00 66 1013.6
20260904000503 87 64 0.0 1.0 0.00 0.00 0.00 65 1013.5
20260904000003 87 64 0.0 1.0 0.00 0.00 0.00 64 1013.5
20260903235502 87 64 0.0 1.0 0.00 0.00 0.00 63 1013.4
20260903235004 87 64 0.0 1.0 0.00 0.00 0.00 63 1013.4
20260903234502 88 64 0.0 1.0 0.00 0.00 0.00 62 1013.3
20260903234002 88 64 0.0 1.0 0.00 0.00 0.00 61 1013.3
20260903233503 88 64 0.0 1.0 0.00 0.00 0.00 60 1013.3
20260903233002 89 64 0.0 1.0 0.00 0.00 0.00 59 1013.2
20260903232502 89 64 0.0 1.0 0.00 0.00 0.00 58 1013.0
20260903232002 90 64 0.0 1.0 0.00 0.00 0.00 59 1012.9
20260903231502 90 64 0.0 1.0 0.00 0.00 0.00 56 1012.9
20260903231001 91 64 0.0 2.0 0.00 0.00 0.00 54 1012.9
20260903230502 92 64 0.0 3.0 0.00 0.00 0.00 52 1012.9
20260903230003 92 106 0.0 2.0 0.00 0.00 0.00 53 1012.9
20260903225504 92 101 0.0 5.0 0.00 0.00 0.00 52 1012.9
20260903225101 92 179 0.0 5.0 0.00 0.00 0.00 52 1012.8
20260903224502 92 77 2.0 5.0 0.00 0.00 0.00 51 1012.7
20260903224002 92 220 0.0 3.0 0.00 0.00 0.00 52 1012.7
20260903223601 93 333 1.0 3.0 0.00 0.00 0.00 52 1012.7
20260903223103 94 144 0.0 7.0 0.00 0.00 0.00 50 1012.7
20260903222601 94 160 1.0 7.0 0.00 0.00 0.00 50 1012.8
20260903222100 94 169 2.0 5.0 0.00 0.00 0.00 50 1012.8
20260903221600 94 103 0.0 3.0 0.00 0.00 0.00 50 1012.7
20260903221059 94 109 1.0 6.0 0.00 0.00 0.00 50 1012.7
20260903220559 93 122 2.0 6.0 0.00 0.00 0.00 51 1012.7
20260903220113 94 85 0.0 5.0 0.00 0.00 0.00 51 1012.8